Location: ?????
(31.8092°N, 35.2590°E)
Time: 02:05:47
(UTC+00:00)

Cosmos 1844 Rocket - Pass Details

Date: 20 June 2021
Orbit: 823 x 846 km, 71.0° (Epoch: 04 August)

Event Time Altitude Azimuth Distance (km) Brightness Sun altitude
Rises 17:49:19 0° 356° (N) 3,407 6.5 -11.8°
Reaches altitude 10° 17:52:25 10° 12° (NNE) 2,470 5.5 -12.4°
Maximum altitude 17:56:34 21° 60° (ENE) 1,831 4.3 -13.1°
Enters shadow 17:59:34 14° 98° (E) 2,183 4.3 -13.6°
